Temperature
25 24 24 24 26 28 27 28 28 28 28 27 27 26 25 24 23 21 20 20 19 19 18 19 18 18 18 18 18 18 18 18 18 18 18 18 18 18 18 18 18 18 18 18 18 18 18 18 18
25 24 24 26 27 27 27 28 28 28 28 27 26 26 24 23 22 20 20 20 19 19 18 19 18 18 18 18 18 18 18 18 18 18 18 18 18 18 18 18 18 18 18 18 18 18 18 18 18
25 25 26 29 29 28 27 28 28 28 28 27 26 25 24 23 21 20 20 20 19 19 19 19 19 18 18 18 18 18 18 18 18 18 18 18 18 18 18 18 18 18 18 18 18 18 18 18 18
24 27 29 30 29 29 29 29 29 29 28 27 26 24 23 22 21 21 20 20 20 19 19 19 19 19 18 18 18 18 18 18 18 18 18 18 18 18 18 18 18 18 18 18 18 18 18 18 18
26 29 30 29 29 30 30 29 29 28 28 26 25 24 22 21 21 21 21 21 20 19 19 19 19 19 19 18 18 18 18 18 18 18 18 18 18 18 18 18 18 18 18 18 18 18 18 18 18
29 31 29 29 29 30 30 29 29 28 27 26 25 24 22 21 21 21 21 21 21 20 19 20 19 19 19 19 19 18 18 18 18 18 18 18 18 18 18 18 18 18 18 18 18 18 18 18 18
31 31 30 30 30 29 30 29 29 28 28 27 25 24 22 21 21 21 21 21 21 20 20 19 19 19 19 19 19 19 19 19 19 18 18 18 18 18 18 18 18 18 18 18 18 18 18 18 18
33 32 31 31 30 29 30 29 29 28 27 26 26 24 22 22 22 21 21 21 21 21 20 20 19 19 19 19 19 19 19 19 18 18 18 18 18 18 18 18 18 18 18 18 18 18 18 18 18
33 32 31 31 31 30 30 29 28 28 27 26 26 24 23 22 22 22 22 21 21 21 20 20 19 19 19 19 19 19 19 18 18 18 18 18 18 18 18 18 18 18 18 18 18 18 18 18 18
34 32 32 33 32 31 31 30 29 28 27 26 25 24 23 23 22 22 22 21 21 21 20 20 20 20 19 19 19 19 18 18 18 18 18 18 18 18 18 18 18 18 18 18 18 18 18 18 18
34 33 33 33 32 32 31 30 30 29 27 26 25 24 23 23 23 22 22 22 21 21 21 20 20 20 20 19 19 19 19 19 18 18 18 18 18 18 18 18 18 18 18 18 18 18 18 18 18
34 34 34 33 32 32 31 31 30 29 27 26 25 24 24 23 23 22 22 22 21 21 20 20 20 20 20 19 19 19 19 19 19 19 18 18 18 18 18 18 18 18 18 18 18 18 18 18 18
34 34 33 33 32 32 31 31 30 28 27 26 25 24 24 24 23 23 22 22 21 21 20 20 20 19 19 19 19 19 19 19 19 19 19 18 18 18 18 18 18 18 18 18 18 18 18 18 18
34 34 34 33 32 32 31 31 30 28 27 26 25 25 24 24 23 23 22 22 21 21 20 20 20 19 19 19 19 19 19 19 19 19 19 18 18 18 18 18 18 18 18 18 18 18 18 18 18
34 34 34 34 33 32 32 30 30 28 27 26 26 25 25 24 24 23 22 22 21 21 20 20 20 19 19 19 19 19 19 19 19 19 18 18 18 18 18 18 18 18 18 18 18 18 18 18 18
34 33 33 33 34 33 32 29 30 28 28 27 26 26 25 24 24 23 23 22 21 21 20 20 20 19 19 19 19 19 19 19 19 18 18 18 18 18 18 18 18 18 18 18 18 18 18 18 18
33 33 32 33 34 33 32 30 30 29 29 28 27 26 26 25 24 24 23 22 21 21 20 20 20 20 19 19 19 19 19 19 19 18 18 18 18 18 18 18 18 18 18 18 18 18 18 18 18
33 33 33 33 34 34 32 31 31 30 29 29 28 27 26 25 25 24 23 22 22 21 20 20 20 20 19 19 19 19 19 19 19 19 18 18 18 18 18 18 18 18 18 18 18 18 18 18 18
34 34 34 34 34 34 33 32 31 31 30 30 29 28 27 26 25 24 24 23 22 21 20 20 20 20 19 19 19 19 19 19 19 19 19 18 18 18 18 18 18 18 18 18 18 18 18 18 18
34 33 33 34 34 34 33 32 32 31 31 30 29 28 28 27 26 25 24 23 22 21 21 20 20 20 20 19 19 19 19 19 19 19 19 18 18 18 18 18 18 18 18 18 18 18 18 18 18
34 33 33 33 34 34 32 31 31 32 32 31 30 29 29 28 26 25 24 24 23 22 21 21 20 20 20 20 19 19 19 19 19 19 19 19 18 18 18 18 18 18 18 18 18 18 18 18 18
33 34 34 34 33 32 32 30 31 32 32 32 31 30 30 28 27 26 25 24 23 22 22 21 21 20 20 20 20 20 19 19 19 19 19 19 18 18 18 18 18 18 18 18 18 18 18 18 18
34 35 34 34 33 32 32 31 31 32 32 32 32 31 30 29 28 27 25 24 24 23 22 21 21 21 20 20 20 20 20 19 19 19 19 19 19 18 18 18 18 18 18 18 18 18 18 18 18
35 34 33 33 33 31 31 31 31 31 32 32 32 31 31 30 29 27 26 25 24 23 23 22 21 21 21 20 20 20 20 20 19 19 19 19 19 19 19 18 18 18 18 18 18 18 18 18 18
34 32 30 30 30 30 31 31 31 33 33 33 33 32 31 30 29 28 26 25 24 24 23 22 21 21 21 21 20 20 20 20 20 19 19 19 19 19 19 19 18 18 18 18 18 18 17 17 17
33 32 30 29 29 30 31 30 32 33 33 33 33 32 31 30 29 28 27 26 25 24 23 23 22 22 21 21 21 20 20 20 20 20 19 19 19 19 19 19 18 18 18 18 18 17 17 17 17
33 33 33 31 31 30 30 31 32 33 33 34 33 32 31 30 29 28 27 26 25 24 24 23 22 22 22 21 21 21 21 20 20 20 20 19 19 19 19 19 18 18 18 18 18 18 17 17 17
34 33 33 31 29 28 29 30 30 31 32 33 33 32 31 30 30 28 28 27 26 25 24 23 23 22 22 22 21 21 21 21 20 20 20 19 19 19 19 19 18 18 18 18 18 18 17 17 17
33 33 32 32 30 29 28 30 32 31 32 32 32 32 31 30 29 28 28 27 26 25 24 24 23 22 22 22 21 21 21 21 20 20 20 19 19 19 19 19 18 18 18 18 18 18 18 17 17
34 33 33 31 30 30 29 29 32 31 32 32 32 32 31 30 30 29 28 27 26 25 25 24 23 22 22 22 21 21 21 20 20 20 20 19 19 19 19 19 19 18 18 18 18 18 17 17 17
Wind_Speed
9 10 9 5 3 5 14 14 14 14 15 15 16 16 18 17 12 10 6 7 9 10 11 12 13 14 15 15 15 16 16 17 17 16 17 17 17 17 18 17 17 17 18 18 17 17 17 16 15
9 11 8 4 1 10 13 14 14 14 13 14 17 19 19 17 14 10 7 7 9 10 11 13 13 14 14 15 15 16 16 16 16 16 16 16 16 16 17 16 16 16 16 16 16 16 15 14 13
11 13 6 0 9 12 13 12 11 12 12 14 16 17 14 12 13 9 8 8 9 11 13 14 14 14 14 14 15 15 15 15 15 15 15 15 15 16 15 15 15 15 15 15 14 14 13 12 11
6 6 1 7 14 15 13 12 11 12 12 13 14 13 14 14 11 10 9 9 11 13 15 15 14 14 14 14 14 14 14 13 14 14 14 14 14 14 14 14 14 13 13 13 13 12 11 11 9
8 3 6 10 15 14 13 12 12 13 14 16 17 16 15 14 12 10 9 10 13 15 16 15 15 14 14 14 13 13 13 13 13 13 13 13 13 13 13 13 12 12 11 11 11 11 10 9 8
4 2 5 10 14 13 12 12 13 14 14 15 17 16 12 11 10 9 10 10 12 14 15 16 15 15 14 14 13 13 13 13 12 12 12 11 11 12 11 11 11 10 10 9 9 9 8 7 6
4 3 7 12 13 13 12 12 12 12 13 13 15 15 10 9 8 9 9 10 11 13 13 14 14 14 14 14 13 13 12 11 11 10 10 10 10 10 10 10 9 9 8 8 7 7 6 5 4
0 4 8 11 13 14 12 12 12 13 12 11 11 10 11 10 9 9 10 10 10 11 11 12 12 12 12 13 12 12 11 10 9 9 8 8 8 9 9 9 9 8 7 7 6 6 5 5 4
2 6 9 11 13 14 12 13 14 14 12 12 13 15 15 13 11 10 10 10 9 10 9 9 10 9 10 11 12 12 10 9 8 7 6 5 4 6 8 9 9 7 6 6 6 6 6 6 6
5 8 11 12 14 14 12 13 13 12 13 14 16 16 16 13 11 10 9 10 9 8 8 7 7 6 8 8 9 8 8 8 6 6 5 4 4 5 8 9 8 7 6 6 7 8 8 8 6
9 10 12 13 14 13 13 12 12 12 12 13 15 15 14 12 10 9 9 9 9 7 8 8 7 5 6 5 6 4 6 6 5 5 4 4 4 5 6 5 6 6 6 5 6 7 6 5 4
10 10 11 11 12 12 13 13 13 13 14 15 15 14 13 11 10 9 9 9 8 7 8 8 7 5 4 4 3 4 4 4 4 4 4 3 2 2 3 2 3 4 3 2 2 2 2 1 1
9 10 11 11 11 12 12 13 14 15 15 16 15 13 12 11 10 9 9 9 8 7 8 8 6 5 4 3 1 3 3 3 4 4 4 3 2 2 2 1 0 1 2 2 0 0 0 0 0
7 9 10 10 11 11 12 13 13 14 15 15 13 12 11 10 10 9 9 8 7 7 7 7 6 6 4 2 1 2 3 3 4 4 4 3 3 2 2 1 1 1 1 2 1 0 0 0 1
6 8 10 9 10 10 11 11 13 14 15 14 13 11 11 11 10 10 9 8 8 7 7 6 6 6 4 2 1 2 2 3 4 4 4 4 3 2 2 1 1 2 1 2 1 0 0 1 1
7 5 6 9 9 10 8 10 13 14 14 13 12 12 11 10 10 10 10 8 8 8 7 5 5 6 4 3 1 1 2 3 3 4 4 3 2 1 1 1 1 1 0 1 0 0 1 1 1
7 7 6 7 9 9 7 11 13 14 14 13 12 12 12 12 11 10 11 10 9 8 7 5 5 6 4 3 2 1 2 2 2 3 3 2 0 1 1 1 1 1 1 1 1 2 1 1 1
6 5 6 6 7 8 8 12 14 15 14 14 14 13 12 12 12 11 11 11 10 9 7 5 5 5 4 3 2 1 2 2 2 3 3 2 1 1 1 1 1 1 1 2 2 2 1 1 1
5 2 2 5 7 5 7 12 13 14 14 14 14 14 13 13 13 13 12 11 10 9 8 7 5 5 3 2 2 2 2 2 2 2 4 3 1 1 1 1 1 1 1 2 2 2 2 1 1
5 3 3 5 7 4 4 7 11 13 13 14 14 13 14 14 14 13 12 11 11 10 9 7 6 6 5 3 2 2 2 2 2 2 4 3 2 0 0 1 1 1 1 1 2 1 2 2 1
7 7 6 4 6 4 2 4 7 12 12 13 14 15 15 15 16 15 14 12 12 11 10 8 7 6 5 4 3 2 2 1 2 3 3 2 2 1 1 2 1 2 1 1 1 1 2 2 2
8 7 7 6 6 4 5 4 7 11 12 13 12 13 14 15 16 16 15 13 12 12 11 8 8 7 5 4 3 3 3 2 3 2 3 3 2 2 1 1 0 1 1 1 2 1 2 2 2
8 7 9 9 7 5 7 6 6 9 11 12 13 13 13 15 16 16 16 14 13 13 12 10 9 7 6 5 4 3 2 2 2 2 3 3 3 2 2 2 1 1 1 1 2 1 1 2 2
9 9 10 10 8 8 7 7 5 7 9 10 11 12 12 14 16 15 16 14 12 12 11 12 10 8 7 6 5 4 3 2 1 1 2 2 3 2 2 2 1 1 0 1 1 1 1 1 2
10 8 7 7 7 8 7 5 4 6 8 9 11 11 12 13 14 15 15 15 13 12 11 11 11 9 8 7 6 5 4 3 2 2 2 2 2 3 2 1 2 1 1 1 0 1 1 1 2
12 12 9 8 7 5 4 3 4 7 7 9 11 11 12 13 13 15 15 15 15 14 12 12 12 10 9 8 6 5 5 4 3 3 2 2 1 2 3 2 2 1 1 1 0 1 1 1 2
13 12 12 10 9 7 4 3 4 6 7 9 11 12 11 12 14 14 14 15 15 14 13 12 12 10 9 8 7 6 5 4 3 3 3 2 2 2 3 2 2 1 1 1 1 1 1 1 2
14 12 8 8 7 7 6 6 5 7 7 8 10 11 11 12 13 12 13 13 12 13 12 12 12 11 9 9 7 8 7 5 4 3 3 2 1 1 2 2 2 2 2 2 1 2 1 1 1
13 13 10 7 6 7 6 4 4 5 7 7 8 10 11 11 12 12 11 11 12 12 13 11 12 11 10 9 8 6 7 7 6 4 4 3 3 2 3 3 2 2 2 2 2 2 2 2 2
14 14 13 9 6 6 6 4 3 3 4 5 7 7 10 10 11 11 11 11 11 12 12 11 11 11 10 9 8 7 6 6 6 5 4 4 4 4 4 4 3 3 3 2 2 3 2 2 2
Wind_Direction
203 221 225 246 251 77 66 63 61 64 64 58 60 66 61 56 68 91 103 88 87 88 90 85 80 78 75 76 77 78 81 82 82 83 86 89 94 97 98 98 99 101 101 101 100 100 100 101 104
226 230 232 251 51 72 67 64 64 66 73 71 69 71 68 67 78 95 99 99 96 93 90 91 90 85 81 80 81 82 83 84 85 86 87 88 94 98 98 98 100 100 100 101 102 101 102 103 106
249 249 252 171 61 70 74 72 74 75 79 82 74 64 64 79 84 97 108 109 100 98 96 98 97 91 88 84 81 84 85 86 87 89 90 90 92 96 97 98 99 100 100 101 102 104 104 106 111
253 248 217 69 70 68 77 83 87 85 75 78 82 76 71 79 93 104 110 108 105 102 101 104 102 97 93 89 85 85 86 87 90 91 92 92 93 94 98 100 100 101 101 101 103 104 107 110 114
238 267 80 73 76 74 76 82 82 79 77 78 84 90 86 84 96 108 108 107 104 104 106 107 110 107 102 97 92 88 87 89 92 93 94 95 96 97 99 101 104 104 105 105 107 109 110 112 114
237 147 84 84 80 80 82 88 90 88 92 95 97 98 93 100 103 104 99 98 101 105 106 113 115 113 109 105 99 93 91 94 91 92 94 97 99 100 102 104 106 108 108 110 113 115 116 117 122
243 80 83 91 93 88 84 87 87 89 89 95 104 103 105 111 107 105 106 99 99 103 112 119 120 117 113 109 106 101 96 95 95 97 101 105 108 110 112 113 113 114 116 120 123 127 128 135 147
224 77 70 81 91 92 89 89 90 91 86 95 109 107 122 129 125 114 105 98 99 103 107 117 121 125 126 122 119 115 110 109 108 108 111 116 121 126 128 125 123 124 128 133 140 146 154 169 186
54 79 74 78 93 103 105 99 95 96 91 80 82 108 127 134 129 120 113 104 98 100 106 110 116 129 127 127 130 133 130 132 133 133 137 144 145 130 134 118 129 136 143 152 163 172 181 192 211
80 78 80 85 95 107 110 107 108 105 96 92 94 108 125 130 128 124 118 112 108 108 107 104 104 114 116 115 130 138 133 141 140 121 139 146 102 108 112 127 142 152 165 178 195 200 201 206 208
89 87 88 90 98 107 107 103 104 107 107 109 115 123 129 132 130 125 116 111 111 115 111 108 97 89 99 114 129 132 123 137 131 122 124 117 114 118 115 142 155 174 186 195 189 203 209 206 199
91 91 94 97 100 104 104 101 93 94 108 117 122 128 130 134 131 124 116 113 116 112 108 103 100 81 69 81 112 136 133 137 126 126 112 107 92 87 113 154 168 178 166 179 173 147 184 198 191
104 107 103 106 104 100 102 103 103 101 110 119 126 132 137 136 133 130 126 124 122 118 111 104 104 95 82 62 30 98 102 117 120 107 89 78 75 58 65 59 56 105 132 155 173 31 125 170 23
114 118 118 117 117 120 115 114 111 116 123 127 134 140 143 139 140 138 134 130 131 129 116 114 116 109 102 102 49 78 95 105 100 99 87 70 74 53 50 53 14 57 79 77 103 224 244 268 89
151 143 134 132 133 132 126 117 118 131 135 138 145 148 148 147 147 146 140 140 142 135 123 129 128 120 122 120 97 104 107 109 103 98 85 57 61 46 45 23 17 33 67 116 138 320 244 250 203
187 176 148 142 146 148 147 125 134 144 144 146 151 152 153 153 154 149 144 146 141 133 132 146 136 130 131 123 74 74 90 97 98 106 100 73 43 28 21 14 22 349 16 93 147 124 340 360 335
215 182 165 151 149 143 143 133 146 157 154 153 159 160 159 157 158 154 151 152 146 138 141 147 124 134 142 144 149 126 99 96 102 107 111 120 143 56 41 34 13 320 8 355 358 60 13 347 341
222 187 163 156 152 147 141 134 155 163 160 162 166 166 164 164 164 160 159 154 150 145 145 150 142 140 147 154 156 160 127 126 127 117 116 126 128 74 14 122 341 339 17 15 17 12 338 281 287
239 228 135 139 142 151 151 147 160 166 169 168 171 170 171 170 165 163 163 159 155 150 153 156 155 148 158 171 168 164 149 171 144 140 131 129 113 92 67 17 327 346 27 8 11 6 333 315 298
254 254 220 164 158 168 171 158 160 168 180 176 172 175 172 170 167 165 166 165 161 159 162 160 160 162 175 168 172 178 167 177 150 127 129 138 128 47 177 54 329 13 16 12 4 352 328 314 309
235 239 237 209 174 178 210 185 174 173 178 176 175 177 177 174 171 169 171 172 169 166 166 171 168 167 177 172 179 182 165 171 146 140 142 141 154 173 24 78 351 348 344 3 329 321 302 302 304
240 243 252 239 225 215 208 209 188 182 176 177 178 179 179 174 172 172 174 174 172 169 169 163 160 163 166 173 189 190 183 183 177 162 148 150 166 180 149 128 44 344 3 5 295 22 311 303 310
245 250 261 263 245 238 223 233 191 177 176 176 179 181 178 175 173 174 174 172 174 172 168 163 160 163 168 181 191 205 199 196 165 147 154 163 175 191 166 152 146 305 329 333 344 359 335 328 321
242 255 266 270 263 246 231 240 188 177 177 177 175 178 177 174 171 170 168 165 172 173 170 165 161 166 172 182 187 200 213 207 169 170 174 189 174 172 170 158 153 189 268 292 310 306 308 319 315
226 240 248 251 241 245 237 237 183 169 170 173 171 172 173 172 167 166 167 168 172 174 172 164 160 168 173 181 189 191 206 205 192 214 203 220 180 158 152 169 166 199 217 250 298 271 301 298 297
230 230 233 242 242 235 237 237 177 159 160 164 160 161 164 168 166 168 169 169 174 175 171 165 162 168 175 182 188 189 195 208 206 209 213 221 212 145 144 167 167 213 254 279 304 282 263 258 287
234 237 242 253 267 272 239 199 188 162 152 159 154 155 162 168 169 169 170 172 175 175 174 171 164 168 176 183 183 185 190 212 214 189 210 214 205 175 142 164 188 208 219 253 254 270 281 304 298
236 239 244 242 259 263 255 235 207 161 171 167 157 156 162 166 165 171 171 170 172 172 170 169 165 169 175 182 188 190 191 201 206 202 200 203 207 196 151 181 194 213 224 228 244 273 260 256 255
225 234 243 247 252 251 251 241 158 175 182 169 162 158 161 160 160 167 170 168 169 169 169 169 168 169 176 182 186 194 182 190 192 201 203 200 209 203 200 209 211 224 229 228 229 253 262 271 286
231 234 239 239 240 254 257 254 185 173 187 172 159 157 156 157 157 157 162 167 170 170 171 171 173 174 179 181 182 191 185 183 188 195 197 198 199 207 214 215 216 227 224 221 227 250 258 264 278
Height
1477 1477 1477 1480 1478 1478 1482 1480 1477 1478 1481 1483 1483 1485 1490 1493 1499 1512 1514 1512 1511 1510 1509 1508 1507 1507 1506 1506 1506 1506 1507 1507 1507 1508 1509 1510 1511 1512 1514 1515 1517 1519 1520 1522 1523 1525 1527 1528 1530
1477 1478 1481 1479 1478 1488 1489 1481 1482 1482 1484 1486 1488 1491 1494 1500 1505 1510 1512 1513 1512 1511 1510 1510 1510 1509 1509 1509 1509 1510 1510 1510 1511 1511 1512 1513 1515 1516 1517 1519 1520 1522 1523 1525 1526 1528 1529 1531 1532
1477 1479 1481 1474 1478 1487 1489 1483 1483 1484 1486 1488 1492 1496 1501 1506 1509 1511 1513 1513 1513 1512 1511 1511 1512 1512 1512 1512 1512 1513 1513 1514 1514 1515 1516 1517 1518 1519 1520 1522 1523 1525 1526 1527 1529 1530 1532 1533 1535
1479 1479 1476 1475 1482 1480 1481 1483 1483 1486 1488 1490 1493 1501 1507 1510 1512 1514 1514 1514 1514 1513 1513 1513 1514 1515 1515 1515 1516 1516 1516 1517 1518 1518 1519 1520 1521 1522 1523 1525 1526 1527 1529 1530 1531 1533 1534 1535 1537
1481 1477 1476 1482 1482 1480 1481 1483 1485 1488 1491 1494 1499 1506 1511 1515 1515 1515 1515 1516 1516 1516 1516 1516 1517 1518 1518 1519 1519 1519 1520 1520 1521 1522 1523 1523 1524 1525 1526 1528 1529 1530 1531 1533 1534 1535 1536 1537 1539
1477 1473 1482 1488 1484 1482 1483 1486 1488 1491 1494 1498 1503 1508 1515 1517 1517 1517 1517 1518 1519 1519 1519 1519 1520 1521 1521 1522 1522 1522 1522 1523 1524 1525 1526 1527 1527 1528 1529 1531 1532 1533 1534 1535 1536 1537 1538 1539 1540
1475 1473 1478 1480 1484 1485 1485 1487 1490 1493 1496 1499 1503 1509 1516 1518 1518 1519 1519 1520 1521 1522 1522 1522 1523 1524 1524 1525 1525 1526 1526 1527 1527 1528 1529 1530 1531 1531 1532 1533 1534 1535 1536 1537 1538 1539 1540 1541 1542
1469 1470 1476 1478 1484 1489 1488 1490 1493 1496 1499 1502 1504 1509 1516 1520 1520 1521 1522 1523 1524 1525 1525 1526 1526 1527 1527 1528 1529 1529 1530 1530 1531 1531 1532 1533 1533 1534 1535 1535 1536 1537 1537 1538 1539 1540 1541 1542 1543
1469 1474 1482 1480 1483 1487 1488 1491 1495 1499 1502 1504 1506 1510 1516 1519 1521 1523 1524 1525 1526 1528 1528 1529 1530 1530 1531 1531 1532 1532 1533 1533 1534 1534 1535 1535 1536 1537 1537 1538 1538 1539 1539 1540 1541 1541 1542 1543 1544
1469 1477 1478 1476 1479 1484 1488 1491 1495 1499 1503 1507 1511 1514 1517 1520 1522 1524 1526 1527 1528 1530 1531 1532 1532 1533 1534 1535 1535 1535 1536 1536 1537 1537 1538 1538 1539 1539 1540 1540 1540 1540 1541 1541 1542 1543 1544 1544 1545
1469 1474 1474 1476 1480 1483 1487 1491 1494 1498 1504 1509 1513 1516 1519 1521 1524 1525 1527 1528 1530 1531 1532 1533 1534 1535 1536 1537 1537 1538 1538 1539 1539 1539 1540 1540 1540 1541 1541 1541 1541 1541 1542 1542 1543 1544 1544 1545 1546
1471 1473 1475 1479 1481 1484 1488 1492 1496 1499 1505 1510 1514 1517 1520 1522 1524 1527 1528 1530 1532 1533 1534 1535 1535 1536 1537 1538 1539 1540 1540 1540 1541 1541 1541 1542 1542 1542 1542 1542 1542 1543 1543 1543 1544 1544 1545 1546 1546
1472 1474 1477 1480 1483 1486 1489 1493 1498 1503 1508 1511 1515 1518 1521 1523 1525 1528 1530 1531 1533 1534 1535 1536 1536 1537 1538 1539 1540 1541 1542 1542 1542 1542 1543 1543 1543 1543 1543 1543 1543 1543 1543 1544 1544 1545 1545 1546 1546
1473 1474 1477 1480 1483 1487 1490 1494 1499 1505 1509 1513 1516 1519 1521 1523 1526 1528 1530 1532 1533 1535 1536 1537 1538 1538 1539 1540 1541 1542 1543 1543 1543 1544 1544 1544 1544 1543 1543 1543 1543 1544 1544 1544 1544 1545 1545 1545 1545
1474 1474 1477 1479 1481 1486 1489 1496 1499 1505 1509 1513 1516 1519 1521 1524 1526 1528 1530 1532 1534 1535 1536 1537 1538 1539 1540 1541 1542 1543 1544 1544 1544 1544 1544 1544 1544 1544 1544 1544 1544 1544 1544 1544 1544 1545 1544 1545 1545
1473 1477 1483 1478 1478 1482 1489 1504 1500 1504 1508 1512 1515 1518 1521 1524 1526 1528 1530 1532 1534 1535 1536 1538 1539 1539 1540 1541 1542 1543 1544 1544 1545 1544 1544 1544 1544 1544 1544 1544 1544 1544 1544 1544 1544 1544 1544 1544 1544
1475 1482 1484 1478 1474 1478 1485 1497 1498 1502 1505 1509 1513 1516 1519 1523 1525 1528 1530 1532 1534 1535 1536 1538 1539 1540 1541 1541 1542 1543 1544 1544 1545 1545 1544 1544 1544 1544 1544 1544 1544 1544 1544 1544 1544 1544 1544 1543 1543
1482 1479 1479 1480 1474 1476 1483 1490 1494 1498 1502 1506 1510 1513 1517 1520 1524 1527 1529 1531 1533 1535 1536 1537 1539 1540 1541 1542 1543 1543 1544 1544 1545 1545 1545 1544 1544 1544 1544 1544 1544 1544 1544 1544 1544 1544 1543 1543 1543
1469 1473 1477 1475 1471 1476 1482 1487 1490 1493 1497 1501 1506 1510 1514 1518 1522 1525 1528 1530 1532 1534 1535 1537 1538 1539 1540 1541 1542 1543 1544 1544 1544 1545 1544 1544 1545 1544 1544 1544 1544 1544 1544 1544 1544 1543 1543 1543 1543
1469 1476 1477 1473 1470 1475 1481 1484 1484 1490 1492 1496 1501 1506 1510 1515 1519 1523 1526 1529 1531 1533 1534 1536 1537 1538 1539 1540 1541 1543 1544 1544 1544 1545 1545 1544 1544 1544 1545 1544 1544 1544 1543 1543 1543 1543 1542 1542 1542
1472 1475 1476 1476 1472 1474 1481 1489 1486 1485 1488 1492 1497 1501 1506 1511 1515 1520 1524 1527 1529 1531 1533 1534 1536 1537 1538 1540 1541 1543 1543 1544 1544 1544 1544 1544 1544 1544 1544 1543 1544 1543 1543 1543 1543 1542 1542 1542 1542
1476 1467 1468 1470 1479 1486 1486 1504 1490 1484 1485 1488 1493 1497 1501 1506 1511 1516 1520 1524 1527 1529 1531 1533 1534 1536 1537 1539 1540 1541 1542 1543 1543 1544 1544 1544 1544 1544 1544 1543 1543 1543 1543 1542 1542 1542 1542 1541 1541
1469 1464 1467 1468 1475 1484 1484 1495 1490 1480 1484 1485 1488 1493 1497 1502 1508 1512 1517 1521 1524 1527 1529 1531 1532 1534 1536 1537 1538 1539 1541 1542 1543 1543 1543 1543 1543 1543 1543 1543 1543 1542 1542 1542 1541 1541 1541 1541 1540
1463 1467 1470 1471 1477 1496 1487 1491 1493 1481 1480 1480 1484 1489 1494 1499 1504 1509 1514 1518 1522 1525 1528 1529 1530 1532 1534 1536 1537 1538 1539 1541 1541 1542 1542 1542 1543 1542 1542 1542 1542 1542 1541 1541 1541 1540 1540 1540 1539
1466 1482 1499 1504 1504 1501 1480 1485 1486 1472 1470 1475 1480 1485 1490 1495 1501 1506 1511 1515 1519 1523 1525 1527 1528 1530 1532 1534 1535 1537 1538 1539 1540 1541 1541 1542 1542 1542 1541 1542 1541 1541 1541 1540 1540 1539 1539 1539 1538
1465 1475 1498 1513 1510 1497 1485 1490 1477 1467 1469 1472 1477 1483 1488 1493 1498 1503 1507 1512 1516 1519 1523 1525 1526 1528 1530 1532 1534 1535 1536 1538 1539 1539 1540 1541 1541 1541 1541 1540 1540 1540 1540 1540 1539 1538 1538 1538 1537
1466 1469 1467 1482 1488 1497 1491 1483 1474 1466 1468 1470 1475 1480 1486 1490 1495 1500 1505 1509 1513 1517 1520 1522 1524 1526 1528 1530 1532 1533 1535 1536 1537 1538 1539 1539 1540 1540 1539 1539 1539 1539 1539 1538 1538 1537 1537 1536 1536
1456 1461 1469 1484 1505 1514 1501 1492 1485 1473 1472 1471 1473 1478 1483 1488 1493 1498 1502 1507 1511 1514 1517 1520 1522 1524 1526 1528 1530 1532 1533 1534 1535 1536 1537 1538 1538 1539 1538 1538 1538 1538 1537 1537 1536 1536 1536 1535 1534
1460 1463 1467 1473 1483 1502 1511 1496 1468 1471 1470 1471 1473 1477 1482 1486 1490 1496 1500 1504 1509 1512 1515 1518 1520 1522 1524 1525 1528 1530 1531 1532 1533 1534 1535 1536 1536 1537 1537 1536 1536 1536 1536 1536 1535 1535 1534 1534 1533
1452 1458 1463 1480 1487 1486 1495 1494 1463 1467 1468 1469 1472 1477 1480 1484 1488 1493 1498 1502 1507 1510 1513 1515 1518 1520 1522 1523 1525 1527 1529 1530 1531 1532 1533 1534 1534 1535 1535 1535 1535 1535 1535 1534 1534 1533 1533 1532 1532